[Date Prev][Date Next][Thread Prev][Thread Next] - [Date Index][Thread Index][Author Index]

2 Line ISS Keps 1-17



ISS
1 25544U 98067A   02017.17797029  .00058595  00000-0  78520-3 0  9674
2 25544  51.6403  91.9468 0007002 317.3275 132.3018 15.57377735180473


----
Via the sarex mailing list at AMSAT.ORG courtesy of AMSAT-NA.
To unsubscribe, send "unsubscribe sarex" to Majordomo@amsat.org



AMSAT Top AMSAT Home